Hourly Data Report for July 14, 2021

LYNN LAKE
MANITOBA
Current Station Operator: NAVCAN

56°51'50.000" N
101°04'34.000" W
356.60 m
5061645
71078
YYL

Download Data

Hourly Data (July 2021)
Hourly Data Report for July 14, 2021
TIME
LST
Temp Definition
°C
Dew Point Definition
°C
Rel Hum Definition
%
Precip. Amount Definition
mm

Wind Dir Definition
10's deg

Wind Spd Definition
km/h
Visibility Definition
km
Stn Press Definition
kPa
Hmdx Definition


Wind Chill Definition


Weather Definition


00:00 13.7 9.4 75 0.0 23 9 16.1 97.53     LegendNANA
01:00 12.8 9.5 80 0.0 24 9 16.1 97.52     LegendNANA
02:00 12.0 9.1 82 0.0 24 11 16.1 97.52     LegendNANA
03:00 11.6 8.3 80 0.0 25 11 16.1 97.50     LegendNANA
04:00 10.6 8.4 86 0.0 25 9 16.1 97.50     LegendNANA
05:00 10.5 8.6 88 0.0 24 11 8.1 97.49     Fog
06:00 11.6 9.6 88 0.0 24 8 6.4 97.48     Fog
07:00 14.7 10.4 75 0.0 24 8 3.2 97.47     Haze
08:00 18.3 10.8 61 0.0 25 8 2.0 97.45     Haze
09:00 20.3 10.5 53 0.0 26 5 1.2 97.40     Haze
10:00 22.7 10.8 47 0.0 LegendMM 4 2.0 97.36     Haze
11:00 23.7 7.8 36 0.0 24 11 2.8 97.31     Haze
12:00 24.5 7.7 34 0.0 25 13 4.8 97.26 25   Haze
13:00 24.9 7.6 33 0.0 25 15 4.8 97.24 25   Haze
14:00 25.1 7.4 32 0.0 23 15 8.1 97.19 25   Haze
15:00 25.0 8.1 34 0.0 23 15 4.8 97.14 25   Haze
16:00 25.2 8.1 33 0.0 29 18 4.8 97.09 26   Haze
17:00 24.7 8.0 34 0.0 23 18 4.8 97.04 25   Haze
18:00 23.9 9.7 40 0.0 21 21 4.8 96.99 25   Haze
19:00 22.8 9.6 43 0.0 21 17 4.8 96.95     Haze
20:00 21.2 10.8 51 0.0 20 9 6.4 96.91     Haze
21:00 19.6 10.7 56 0.0 19 8 8.1 96.89     Haze
22:00 18.2 9.8 58 0.0 19 9 8.1 96.88     Haze
23:00 17.8 10.0 60 0.0 21 5 6.4 96.85     Haze

Notes on Data Quality.

Legend

  • E = Estimated
  • M = Missing
  • NA = Not Available*
  • [empty] = Indicates an unobserved value
Date modified: